Location: Azul
(36.7830°S, 59.8500°W)
Time: 21:42:47
(UTC-03:00)

AO-7 - Visible Passes

Search period start: 23 October 2021 00:00
Search period end: 02 November 2021 00:00
Orbit: 1439 x 1459 km, 101.9° (Epoch: 23 October)

Date Brightness Start Highest point End Pass type
(mag) Time Alt. Az. Time Alt. Az. Time Alt. Az.
23 Oct ? 01:58:16 10° ESE 02:01:42 13° SE 02:05:08 10° SSE visible
23 Oct ? 03:44:35 10° NNE 03:52:46 65° ESE 04:01:04 10° S visible
24 Oct ? 02:46:44 10° ENE 02:53:29 29° ESE 03:00:17 10° S visible
24 Oct ? 04:37:22 10° N 04:45:35 63° WNW 04:53:56 10° SSW visible
25 Oct ? 01:52:19 10° ESE 01:54:51 12° SE 01:57:24 10° SSE visible
25 Oct ? 03:37:41 10° NE 03:45:47 59° ESE 03:53:58 10° S visible
25 Oct ? 05:31:57 10° NNW 05:38:50 28° W 05:45:49 10° SW visible
26 Oct ? 02:40:07 10° ENE 02:46:34 26° ESE 02:53:04 10° S visible
26 Oct ? 04:30:15 10° N 04:38:32 70° WNW 04:46:57 10° SSW visible
27 Oct ? 01:47:01 10° SE 01:48:02 10° SE 01:49:02 10° SE visible
27 Oct ? 03:30:49 10° NE 03:38:48 53° ESE 03:46:53 10° S visible
27 Oct ? 05:24:33 10° NNW 05:31:43 32° W 05:39:01 10° SW visible
28 Oct ? 02:33:32 10° ENE 02:39:41 23° SE 02:45:50 10° S visible
28 Oct ? 04:23:10 10° NNE 04:31:30 77° WNW 04:39:57 10° SSW visible
29 Oct ? 03:23:58 10° NE 03:31:49 48° ESE 03:39:46 10° S visible
29 Oct ? 05:17:12 10° NNW 05:24:37 36° W 05:32:10 10° SW visible
30 Oct ? 02:27:00 10° E 02:32:47 21° SE 02:38:35 10° S visible
30 Oct ? 04:16:07 10° NNE 04:24:28 84° WNW 04:32:56 10° SSW visible
31 Oct ? 03:17:09 10° NE 03:24:52 44° ESE 03:32:40 10° S visible
31 Oct ? 05:09:54 10° NNW 05:17:32 40° W 05:25:18 10° SSW visible
01 Nov ? 02:20:31 10° E 02:25:53 19° SE 02:31:17 10° SSE visible
01 Nov ? 04:09:05 10° NNE 04:17:26 88° ESE 04:25:55 10° SSW visible
